Location: Tuttlingen
(47.9853°N, 8.8165°E)
Time: 04:53:37
(UTC+01:00)

Tiangong 1 - Visible Passes

Search period start: 22 November 2017 00:00
Search period end: 02 December 2017 00:00
Orbit: 284 x 308 km, 42.8° (Epoch: 21 November)

Date Brightness Start Highest point End Pass type
(mag) Time Alt. Az. Time Alt. Az. Time Alt. Az.
27 Nov 3.0 18:00:42 10° SSW 18:02:04 13° SSE 18:02:44 12° SE visible
28 Nov 2.6 18:06:11 10° SSW 18:08:06 18° SSE 18:08:39 17° SSE visible
29 Nov 2.3 18:11:54 10° SW 18:14:02 22° S 18:14:27 21° SSE visible
30 Nov 2.2 18:17:40 10° WSW 18:19:52 25° S 18:20:09 24° SSE visible
01 Dec 2.3 18:23:25 10° WSW 18:25:37 24° S 18:25:46 24° S visible
